| time (UTC) | temp C | wind direction | speed KPH | gust KPH | rain 1hr cm | rain 24hr cm | rain mn cm | humidity % | barometer mb |
| 20260510043055 | 25 | 142 | 1.6 | 12.9 | 0.00 | 0.00 | 0.00 | 91 | 1013.0 |
| 20260510041554 | 25 | 107 | 1.6 | 9.7 | 0.00 | 0.00 | 0.00 | 90 | 1013.2 |
| 20260510034552 | 25 | 140 | 1.6 | 8.0 | 0.00 | 0.00 | 0.00 | 90 | 1012.9 |
| 20260510033056 | 25 | 131 | 3.2 | 11.3 | 0.00 | 0.00 | 0.00 | 90 | 1012.5 |
| 20260510031552 | 25 | 118 | 3.2 | 11.3 | 0.00 | 0.00 | 0.00 | 90 | 1012.8 |
| 20260510030049 | 25 | 131 | 1.6 | 14.5 | 0.00 | 0.00 | 0.00 | 90 | 1012.8 |
| 20260510024548 | 25 | 111 | 1.6 | 9.7 | 0.00 | 0.00 | 0.00 | 90 | 1012.4 |
| 20260510023046 | 25 | 142 | 0.0 | 6.4 | 0.00 | 0.00 | 0.00 | 89 | 1012.3 |
| 20260510021635 | 25 | 99 | 0.0 | 11.3 | 0.00 | 0.00 | 0.00 | 89 | 1011.8 |
| 20260510020043 | 26 | 134 | 3.2 | 6.4 | 0.00 | 0.00 | 0.00 | 89 | 1011.4 |
| 20260510014553 | 26 | 121 | 1.6 | 14.5 | 0.00 | 0.00 | 0.00 | 87 | 1010.9 |
| 20260510013048 | 26 | 149 | 0.0 | 3.2 | 0.00 | 0.00 | 0.00 | 84 | 1010.7 |
| 20260510011541 | 26 | 148 | 4.8 | 11.3 | 0.00 | 0.00 | 0.00 | 82 | 1010.1 |
| 20260510010049 | 27 | 159 | 4.8 | 16.1 | 0.00 | 0.00 | 0.00 | 79 | 1009.8 |
| 20260510004539 | 27 | 153 | 6.4 | 11.3 | 0.00 | 0.00 | 0.00 | 81 | 1009.8 |
| 20260510003040 | 28 | 142 | 4.8 | 11.3 | 0.00 | 0.00 | 0.00 | 80 | 1009.7 |
| 20260510001538 | 28 | 142 | 3.2 | 11.3 | 0.00 | 0.00 | 0.00 | 78 | 1009.7 |
| 20260510000037 | 30 | 132 | 1.6 | 8.0 | 0.00 | 0.00 | 0.00 | 72 | 1009.3 |
| 20260509234536 | 30 | 135 | 3.2 | 14.5 | 0.00 | 0.00 | 0.00 | 67 | 1009.2 |
| 20260509233036 | 31 | 129 | 4.8 | 12.9 | 0.00 | 0.00 | 0.00 | 69 | 1009.2 |
| 20260509231534 | 31 | 174 | 3.2 | 12.9 | 0.00 | 0.00 | 0.00 | 69 | 1009.3 |
| 20260509230039 | 31 | 134 | 3.2 | 11.3 | 0.00 | 0.00 | 0.00 | 71 | 1009.1 |
| 20260509224534 | 32 | 92 | 1.6 | 12.9 | 0.00 | 0.00 | 0.00 | 71 | 1009.0 |
| 20260509223037 | 32 | 138 | 0.0 | 8.0 | 0.00 | 0.00 | 0.00 | 72 | 1009.0 |
| 20260509221531 | 32 | 124 | 1.6 | 6.4 | 0.00 | 0.00 | 0.00 | 72 | 1008.9 |
| 20260509220029 | 32 | 292 | 0.0 | 4.8 | 0.00 | 0.00 | 0.00 | 73 | 1008.8 |
| 20260509214529 | 31 | 137 | 0.0 | 6.4 | 0.00 | 0.00 | 0.00 | 72 | 1008.9 |
| 20260509213031 | 31 | 140 | 1.6 | 8.0 | 0.00 | 0.00 | 0.00 | 73 | 1008.8 |
| 20260509211527 | 31 | 210 | 1.6 | 6.4 | 0.00 | 0.00 | 0.00 | 75 | 1008.9 |
| 20260509210026 | 32 | 130 | 0.0 | 4.8 | 0.00 | 0.00 | 0.00 | 74 | 1008.8 |
| 20260509204525 | 31 | 131 | 0.0 | 11.3 | 0.00 | 0.00 | 0.00 | 74 | 1009.0 |
| 20260509203025 | 31 | 138 | 1.6 | 4.8 | 0.00 | 0.00 | 0.00 | 74 | 1009.0 |
| 20260509201521 | 31 | 138 | 1.6 | 4.8 | 0.00 | 0.00 | 0.00 | 78 | 1009.2 |
| 20260509200019 | 31 | 225 | 1.6 | 6.4 | 0.00 | 0.00 | 0.00 | 78 | 1009.5 |
| 20260509194530 | 30 | 213 | 1.6 | 6.4 | 0.00 | 0.00 | 0.00 | 78 | 1009.6 |
| 20260509193022 | 31 | 225 | 0.0 | 6.4 | 0.00 | 0.00 | 0.00 | 77 | 1009.6 |
| 20260509191517 | 31 | 248 | 1.6 | 6.4 | 0.00 | 0.00 | 0.00 | 76 | 1009.6 |
| 20260509190012 | 30 | 260 | 0.0 | 4.8 | 0.00 | 0.00 | 0.00 | 71 | 1009.7 |
| 20260509184510 | 30 | 261 | 0.0 | 4.8 | 0.00 | 0.00 | 0.00 | 73 | 1009.7 |
| 20260509183013 | 30 | 262 | 3.2 | 6.4 | 0.00 | 0.00 | 0.00 | 76 | 1010.1 |
| 20260509181504 | 29 | 262 | 0.0 | 6.4 | 0.00 | 0.00 | 0.00 | 76 | 1010.3 |
| 20260509180002 | 28 | 264 | 0.0 | 6.4 | 0.00 | 0.00 | 0.00 | 81 | 1010.6 |
| 20260509174559 | 27 | 263 | 1.6 | 6.4 | 0.00 | 0.00 | 0.00 | 83 | 1011.2 |
| 20260509173106 | 27 | 175 | 0.0 | 3.2 | 0.00 | 0.00 | 0.00 | 86 | 1011.4 |
| 20260509171556 | 27 | 175 | 0.0 | 3.2 | 0.00 | 0.00 | 0.00 | 87 | 1011.4 |
| 20260509170052 | 27 | 175 | 1.6 | 9.7 | 0.00 | 0.00 | 0.00 | 86 | 1011.4 |
| 20260509164549 | 27 | 168 | 1.6 | 4.8 | 0.00 | 0.00 | 0.00 | 87 | 1011.5 |
| 20260509163051 | 27 | 168 | 0.0 | 1.6 | 0.00 | 0.00 | 0.00 | 87 | 1011.4 |
| 20260509161555 | 27 | 167 | 0.0 | 3.2 | 0.00 | 0.00 | 0.00 | 88 | 1011.3 |
| 20260509160042 | 26 | 168 | 0.0 | 8.0 | 0.00 | 0.00 | 0.00 | 88 | 1011.3 |
| 20260509154545 | 26 | 167 | 0.0 | 4.8 | 0.00 | 0.00 | 0.00 | 88 | 1011.0 |
| 20260509153050 | 25 | 167 | 0.0 | 0.0 | 0.00 | 0.00 | 0.00 | 89 | 1010.7 |
| 20260509151530 | 25 | 130 | 0.0 | 0.0 | 0.00 | 0.00 | 0.00 | 90 | 1011.1 |
| 20260509150031 | 25 | 130 | 0.0 | 0.0 | 0.00 | 0.00 | 0.00 | 91 | 1011.2 |
| 20260509144527 | 25 | 130 | 0.0 | 0.0 | 0.00 | 0.00 | 0.00 | 92 | 1011.3 |
| 20260509143027 | 24 | 130 | 0.0 | 0.0 | 0.00 | 0.00 | 0.00 | 93 | 1011.4 |
| 20260509141533 | 24 | 129 | 0.0 | 0.0 | 0.00 | 0.00 | 0.00 | 94 | 1011.5 |
| 20260509140021 | 24 | 129 | 0.0 | 0.0 | 0.00 | 0.00 | 0.00 | 95 | 1011.3 |
| 20260509134518 | 23 | 129 | 0.0 | 0.0 | 0.00 | 0.00 | 0.00 | 95 | 1010.8 |
| 20260509133015 | 23 | 129 | 0.0 | 0.0 | 0.00 | 0.00 | 0.00 | 95 | 1011.4 |
| 20260509131511 | 23 | 129 | 0.0 | 0.0 | 0.00 | 0.00 | 0.00 | 95 | 1011.3 |
| 20260509130012 | 23 | 129 | 0.0 | 0.0 | 0.00 | 0.00 | 0.00 | 95 | 1010.9 |
| 20260509124506 | 23 | 129 | 0.0 | 0.0 | 0.00 | 0.00 | 0.00 | 94 | 1011.2 |
| 20260509123005 | 23 | 129 | 0.0 | 0.0 | 0.00 | 0.00 | 0.00 | 94 | 1011.2 |
| 20260509121504 | 23 | 129 | 0.0 | 0.0 | 0.00 | 0.00 | 0.00 | 94 | 1011.0 |
| 20260509120101 | 23 | 129 | 0.0 | 0.0 | 0.00 | 0.00 | 0.00 | 94 | 1011.2 |
| 20260509114559 | 23 | 129 | 0.0 | 0.0 | 0.00 | 0.00 | 0.00 | 94 | 1011.1 |
| 20260509114501 | 23 | 129 | 0.0 | 0.0 | 0.00 | 0.00 | 0.00 | 94 | 1011.1 |
| 20260509113059 | 23 | 129 | 0.0 | 0.0 | 0.00 | 0.00 | 0.00 | 94 | 1011.0 |
| 20260509111559 | 23 | 129 | 0.0 | 0.0 | 0.00 | 0.00 | 0.00 | 94 | 1011.0 |
| 20260509110057 | 23 | 129 | 0.0 | 0.0 | 0.00 | 0.00 | 0.00 | 94 | 1010.6 |
| 20260509104603 | 23 | 129 | 0.0 | 0.0 | 0.00 | 0.00 | 0.00 | 94 | 1010.4 |
| 20260509103105 | 23 | 129 | 0.0 | 0.0 | 0.00 | 0.00 | 0.00 | 94 | 1010.6 |
| 20260509101613 | 23 | 129 | 0.0 | 0.0 | 0.00 | 0.00 | 0.00 | 94 | 1010.4 |
| 20260509100056 | 23 | 129 | 0.0 | 0.0 | 0.00 | 0.00 | 0.00 | 94 | 1010.4 |
| 20260509094601 | 23 | 129 | 0.0 | 0.0 | 0.00 | 0.00 | 0.00 | 94 | 1010.2 |
| 20260509093055 | 23 | 129 | 0.0 | 0.0 | 0.00 | 0.00 | 0.00 | 94 | 1010.1 |
| 20260509091555 | 23 | 129 | 0.0 | 0.0 | 0.00 | 0.00 | 0.00 | 94 | 1009.8 |
| 20260509090058 | 23 | 129 | 0.0 | 3.2 | 0.00 | 0.00 | 0.00 | 94 | 1009.9 |
| 20260509084600 | 23 | 129 | 0.0 | 0.0 | 0.00 | 0.00 | 0.00 | 93 | 1009.9 |
| 20260509083105 | 23 | 129 | 0.0 | 0.0 | 0.00 | 0.00 | 0.00 | 93 | 1010.0 |
| 20260509081548 | 23 | 129 | 0.0 | 0.0 | 0.00 | 0.00 | 0.00 | 93 | 1010.2 |
| 20260509080050 | 23 | 129 | 0.0 | 0.0 | 0.00 | 0.00 | 0.00 | 93 | 1010.3 |
| 20260509074606 | 23 | 129 | 0.0 | 1.6 | 0.00 | 0.00 | 0.00 | 93 | 1010.6 |
| 20260509073102 | 23 | 129 | 0.0 | 0.0 | 0.00 | 0.00 | 0.00 | 93 | 1010.7 |
| 20260509071552 | 23 | 129 | 0.0 | 1.6 | 0.00 | 0.00 | 0.00 | 93 | 1010.7 |
| 20260509070047 | 23 | 129 | 0.0 | 0.0 | 0.00 | 0.00 | 0.00 | 93 | 1010.7 |
| 20260509064542 | 23 | 129 | 0.0 | 0.0 | 0.00 | 0.00 | 0.00 | 93 | 1010.4 |
| 20260509063055 | 23 | 129 | 0.0 | 0.0 | 0.00 | 0.00 | 0.00 | 93 | 1010.7 |
| 20260509061541 | 23 | 129 | 0.0 | 0.0 | 0.00 | 0.00 | 0.00 | 93 | 1010.9 |
| 20260509060101 | 23 | 129 | 0.0 | 0.0 | 0.00 | 0.00 | 0.00 | 93 | 1010.9 |
| 20260509054539 | 23 | 129 | 0.0 | 3.2 | 0.00 | 0.00 | 0.00 | 93 | 1010.8 |
| 20260509053051 | 23 | 129 | 0.0 | 8.0 | 0.00 | 0.00 | 0.00 | 93 | 1011.1 |
| 20260509051535 | 23 | 128 | 0.0 | 4.8 | 0.00 | 0.00 | 0.00 | 93 | 1011.1 |
| 20260509050034 | 23 | 128 | 0.0 | 6.4 | 0.00 | 0.00 | 0.00 | 93 | 1011.4 |
| 20260509044532 | 23 | 128 | 0.0 | 3.2 | 0.00 | 0.00 | 0.00 | 93 | 1011.5 |